[[{"header":{"parameterUnit":"m.s-1","parameterCategory":1,"la1":30.2991,"la2":30.254,"lo1":-89.0895,"lo2":-89.0444,"dy":0.0017,"dx":0.0017,"nx":28,"ny":28,"refTime":"2025-12-24T03:00:00:Z","depth":0,"parameterNumber":2,"parameterNumberName":"U-component_of_WINDS"},"data":[0,0,0,0,0,0,0,0,0,0,0,0,0,0,0,0,0,0,0,0,0,0,0,0,0,0,0,0,0,0,0,0,0,0,0,0,0,0,0,0,0,0,0,0,0,0,0,0,0,0,0,0,0,0,0,0,0,0,0.6451,0.6452,0,0.6539,0.654,0.6541,0.6583,0.6583,0.6583,0.6583,0.6673,0.6676,0.6678,0,0,0,0,0,0,0,0,0,0,0,0,0,0.6319,0.6322,0.6451,0.6452,0.6453,0.6539,0.654,0.6541,0.6583,0.6583,0.6583,0.6583,0.6672,0.6675,0.6678,0,0,0,0,0,0,0,0,0,0,0,0,0,0.6389,0.6322,0.6451,0.6484,0.6488,0.6539,0.654,0.6542,0.6583,0.6583,0.6583,0.6583,0.6671,0.6675,0.6679,0.6702,0,0,0.669,0.6691,0,0,0,0,0,0,0,0,0.6385,0.6394,0.6478,0.6482,0.6486,0.655,0.6527,0.6595,0.6583,0.6547,0.6583,0.6583,0.6632,0.6639,0.6656,0.6707,0.6711,0.669,0.6692,0.6694,0.6695,0,0,0,0,0,0,0,0.638,0.639,0.6486,0.6479,0.6484,0.6495,0.6505,0.654,0.6589,0.655,0.6553,0.6563,0.6634,0.6652,0.6658,0.6712,0.669,0.6693,0.6696,0.6697,0.6787,0.6788,0,0,0,0,0,0,0.637,0.6386,0.6483,0.6488,0.6434,0.6497,0.6508,0.653,0.6589,0.6597,0.6563,0.6565,0.6646,0.6654,0.6662,0.6694,0.6694,0.6697,0.6699,0.6787,0.6787,0.6788,0,0,0,0,0,0,0.6367,0.6378,0.6479,0.6438,0.6452,0.65,0.6523,0.6531,0.6549,0.6598,0.6607,0.6572,0.6646,0.6656,0.6692,0.6697,0.6699,0.6702,0.6787,0.6787,0.6788,0.6758,0,0,0,0,0,0,0.6363,0.6377,0.6386,0.6438,0.6454,0.6508,0.6524,0.6533,0.6555,0.6558,0.6609,0.6618,0.6647,0.6686,0.6696,0.6703,0.6705,0.6787,0.6787,0.6787,0.6759,0.6757,0.6756,0,0,0,0,0,0.6358,0.6374,0.6386,0.6398,0.6467,0.6508,0.6518,0.6551,0.6555,0.6565,0.6597,0.6616,0.6695,0.669,0.6701,0.6708,0.6787,0.6787,0.6787,0.6759,0.6757,0.6756,0,0,0,0,0,0,0.6322,0.6382,0.6396,0.6429,0.6463,0.6515,0.6529,0.6548,0.6581,0.6583,0.6623,0.6634,0.6666,0.6691,0.6684,0.6735,0.6743,0.6745,0.6718,0.6716,0.6715,0.6708,0.6708,0,0,0,0,0,0.6318,0.6346,0.6397,0.6422,0.6438,0.6481,0.65,0.6523,0.656,0.6574,0.6609,0.6644,0.6677,0.6698,0.6731,0.6762,0.6774,0.6773,0.6772,0.677,0.6772,0.6791,0.6791,0.6789,0.6789,0.6789,0,0,0.6309,0.6346,0.6362,0.6416,0.6445,0.6474,0.6493,0.6523,0.6545,0.6579,0.6615,0.6641,0.6684,0.6717,0.6734,0.6739,0.6776,0.6771,0.677,0.6772,0.6792,0.6792,0.6792,0.6789,0.6789,0.6789,0,0,0.631,0.634,0.6364,0.6393,0.6437,0.6465,0.647,0.652,0.6539,0.6575,0.6602,0.6629,0.6684,0.6714,0.6736,0.6747,0.6766,0.6756,0.6749,0.6767,0.6767,0.6768,0.6772,0.6773,0.6758,0.6758,0.6758,0,0.6294,0.6339,0.6374,0.6403,0.6426,0.6458,0.6483,0.6509,0.6562,0.6577,0.6582,0.6653,0.6684,0.6725,0.6727,0.6744,0.6752,0.6751,0.6764,0.6765,0.6766,0.6771,0.6772,0.6757,0.6757,0.6757,0.6757,0,0.6318,0.6348,0.6363,0.6412,0.6437,0.6464,0.6503,0.6524,0.6544,0.6572,0.6609,0.6646,0.6688,0.6699,0.672,0.6743,0.6745,0.6757,0.6765,0.6764,0.6769,0.6771,0.6755,0.6755,0.6756,0.6756,0,0,0.6297,0.6366,0.6371,0.6394,0.6445,0.647,0.6498,0.6538,0.6555,0.659,0.6615,0.6662,0.6673,0.6698,0.6722,0.6737,0.6744,0.6747,0.6749,0.6746,0.6773,0.6764,0.6766,0.6757,0.6757,0.6758,0.677,0,0.6305,0.6356,0.6389,0.6428,0.6457,0.6488,0.6513,0.6547,0.6573,0.6602,0.6631,0.6664,0.6676,0.6691,0.6708,0.674,0.675,0.6739,0.6781,0.6782,0.6769,0.6768,0.6759,0.6769,0.6772,0.6772,0.6773,0,0.632,0.6354,0.6396,0.6444,0.6458,0.6479,0.6519,0.6546,0.6585,0.6603,0.6631,0.6655,0.6687,0.6692,0.6736,0.6728,0.6747,0.6765,0.6766,0.6772,0.6777,0.6774,0.6772,0.6774,0.6776,0.6776,0.6775,0,0.6301,0.6358,0.639,0.6409,0.6466,0.648,0.6505,0.6544,0.6566,0.6601,0.6616,0.6654,0.6675,0.6704,0.6738,0.6739,0.6778,0.6787,0.6795,0.6794,0.6802,0.6801,0.6803,0.6813,0.6813,0.6813,0.6813,0,0.6306,0.6331,0.6383,0.6403,0.6431,0.6468,0.6495,0.6522,0.6557,0.6583,0.6612,0.6636,0.6679,0.6708,0.6735,0.6767,0.6776,0.6792,0.6799,0.679,0.6788,0.6803,0.6803,0.6814,0.6813,0.6813,0.6813,0,0.629,0.6326,0.6363,0.6414,0.6428,0.6446,0.649,0.6511,0.6539,0.6571,0.6581,0.6625,0.6661,0.6697,0.6746,0.6764,0.6795,0.6805,0.6782,0.6786,0.6792,0.6791,0.6804,0.6808,0.6815,0.6815,0.6815,0,0.6291,0.631,0.6363,0.6383,0.6406,0.6437,0.646,0.6498,0.652,0.6567,0.6582,0.662,0.6652,0.6708,0.6745,0.6782,0.6793,0.6795,0.6798,0.6788,0.6793,0.6791,0.6794,0.6793,0.6793,0.6793,0.6793,0,0.6288,0.6305,0.6337,0.6376,0.6402,0.6434,0.6467,0.6482,0.6526,0.655,0.6587,0.6612,0.6661,0.6699,0.674,0.6766,0.6787,0.6791,0.6795,0.6786,0.6772,0.678,0.6779,0.6791,0.6791,0.6791,0.6791,0.6791,0.6281,0.63,0.634,0.6375,0.6404,0.6434,0.6456,0.6487,0.6519,0.6562,0.6582,0.6619,0.6659,0.6717,0.6742,0.6771,0.6777,0.6783,0.6784,0.6785,0.6783,0.6767,0.6779,0.6779,0.6779,0.6779,0.6779,0,0.628,0.6308,0.634,0.6385,0.6413,0.643,0.6467,0.6489,0.6521,0.6556,0.6588,0.663,0.6667,0.6706,0.6745,0.6762,0.6772,0.6771,0.677,0.6775,0.6775,0.6768,0.6761,0.6761,0.6761,0.6761,0.6761,0.6761,0.6283,0.6316,0.6338,0.6386,0.6414,0.645,0.647,0.6498,0.6527,0.6573,0.6603,0.6629,0.6666,0.6708,0.6742,0.6753,0.6766,0.6762,0.6775,0.6774,0.6775,0.6777,0.677,0.6764,0.6764,0.6773,0.6773,0.6773]},{"header":{"parameterUnit":"m.s-1","parameterCategory":1,"la1":30.2991,"la2":30.254,"lo1":-89.0895,"lo2":-89.0444,"dy":0.0017,"dx":0.0017,"nx":28,"ny":28,"refTime":"2025-12-24T03:00:00:Z","depth":0,"parameterNumber":3,"parameterNumberName":"V-component_of_WINDS"},"data":[0,0,0,0,0,0,0,0,0,0,0,0,0,0,0,0,0,0,0,0,0,0,0,0,0,0,0,0,0,0,0,0,0,0,0,0,0,0,0,0,0,0,0,0,0,0,0,0,0,0,0,0,0,0,0,0,0,0,0.2829,0.2829,0,0.2812,0.2812,0.2811,0.2849,0.285,0.2851,0.2852,0.2829,0.2828,0.2826,0,0,0,0,0,0,0,0,0,0,0,0,0,0.2888,0.2887,0.2829,0.2829,0.2828,0.2812,0.2812,0.2811,0.2849,0.285,0.2852,0.2853,0.283,0.2828,0.2826,0,0,0,0,0,0,0,0,0,0,0,0,0,0.2866,0.2887,0.2829,0.2845,0.2846,0.2812,0.2812,0.2811,0.2848,0.285,0.2852,0.2854,0.2831,0.2828,0.2826,0.2773,0,0,0.2818,0.2816,0,0,0,0,0,0,0,0,0.2867,0.2864,0.2843,0.2844,0.2845,0.2835,0.2824,0.2798,0.2848,0.2847,0.2852,0.2855,0.2829,0.2827,0.282,0.2772,0.2771,0.2817,0.2816,0.2815,0.2814,0,0,0,0,0,0,0,0.2869,0.2865,0.2822,0.2843,0.2844,0.2852,0.285,0.2819,0.2828,0.2848,0.285,0.2848,0.283,0.2822,0.2819,0.277,0.2817,0.2815,0.2813,0.2812,0.2678,0.2676,0,0,0,0,0,0,0.2869,0.2866,0.2823,0.2821,0.2861,0.2849,0.2848,0.2836,0.2829,0.2829,0.2847,0.285,0.2826,0.2822,0.2819,0.2756,0.2815,0.2812,0.2811,0.268,0.2677,0.2675,0,0,0,0,0,0,0.287,0.2865,0.2823,0.2844,0.284,0.2846,0.2833,0.2835,0.2827,0.2828,0.2829,0.2837,0.2827,0.2822,0.2784,0.2755,0.2811,0.2809,0.2682,0.2679,0.2676,0.263,0,0,0,0,0,0,0.2872,0.2865,0.2846,0.2844,0.2838,0.279,0.2831,0.2833,0.2823,0.2827,0.2819,0.2819,0.2828,0.2788,0.2782,0.2753,0.2807,0.2685,0.2681,0.2677,0.2634,0.2626,0.2619,0,0,0,0,0,0.2874,0.2833,0.2845,0.2839,0.2815,0.2789,0.2786,0.2798,0.282,0.28,0.2801,0.282,0.276,0.2784,0.2777,0.2747,0.2686,0.2682,0.2677,0.2637,0.2627,0.2619,0,0,0,0,0,0,0.2829,0.2833,0.2846,0.2804,0.2796,0.2795,0.2771,0.2787,0.2771,0.2775,0.2789,0.2787,0.2746,0.2743,0.2769,0.2695,0.2727,0.2721,0.2699,0.2689,0.2682,0.2683,0.2804,0,0,0,0,0,0.2815,0.2795,0.2798,0.276,0.2756,0.2764,0.2753,0.2763,0.2755,0.2751,0.2749,0.2739,0.2718,0.2703,0.2684,0.2634,0.2632,0.261,0.2602,0.2596,0.259,0.2563,0.2552,0.266,0.266,0.266,0,0,0.2784,0.2784,0.277,0.2751,0.2747,0.2724,0.2761,0.2735,0.2718,0.2747,0.2711,0.2709,0.2698,0.2654,0.2634,0.265,0.256,0.259,0.2585,0.2583,0.2557,0.2547,0.2538,0.2657,0.2658,0.2658,0,0,0.2717,0.2715,0.2683,0.2678,0.2671,0.2677,0.2669,0.2666,0.2666,0.2631,0.2652,0.2631,0.2595,0.2586,0.2577,0.2507,0.2523,0.25,0.2459,0.2432,0.2424,0.2416,0.239,0.2381,0.2494,0.2494,0.2494,0,0.268,0.2648,0.2664,0.2638,0.2628,0.2655,0.2622,0.2616,0.2601,0.2594,0.2612,0.2567,0.2562,0.2515,0.2498,0.249,0.2481,0.25,0.2424,0.2417,0.241,0.2385,0.2375,0.2492,0.2492,0.2492,0.2492,0,0.2602,0.2579,0.2554,0.2542,0.253,0.25,0.251,0.2495,0.2507,0.251,0.2473,0.2468,0.2448,0.2438,0.2448,0.2392,0.2402,0.2422,0.2454,0.2397,0.2373,0.2364,0.2488,0.2489,0.2489,0.249,0,0,0.2505,0.2503,0.2494,0.2488,0.2483,0.2465,0.2435,0.2418,0.2404,0.2394,0.2368,0.2337,0.2356,0.2345,0.2355,0.2331,0.2275,0.2354,0.2354,0.2338,0.2212,0.2196,0.2185,0.2286,0.2284,0.2283,0.2213,0,0.2438,0.239,0.2403,0.2354,0.2333,0.2358,0.2333,0.2325,0.2328,0.2309,0.231,0.2288,0.2314,0.2308,0.2286,0.2286,0.2249,0.2292,0.226,0.2259,0.2261,0.2173,0.2157,0.2091,0.2204,0.2202,0.2201,0,0.2353,0.2341,0.229,0.2288,0.228,0.2256,0.2241,0.2223,0.2215,0.2218,0.2207,0.2221,0.219,0.2223,0.218,0.2209,0.2197,0.2195,0.2193,0.2189,0.2226,0.2166,0.207,0.206,0.2187,0.2188,0.2189,0,0.2286,0.2257,0.2223,0.2218,0.2215,0.2198,0.2195,0.2189,0.2178,0.2164,0.2156,0.2138,0.2128,0.2113,0.2121,0.2144,0.2076,0.211,0.2076,0.2076,0.2059,0.206,0.1959,0.2053,0.2054,0.2054,0.2054,0,0.2209,0.2177,0.2193,0.2172,0.2136,0.2152,0.2115,0.2115,0.211,0.2088,0.2108,0.2087,0.21,0.2078,0.2085,0.2047,0.2043,0.2043,0.2045,0.2041,0.204,0.2032,0.2036,0.2051,0.2052,0.2052,0.2053,0,0.2128,0.2139,0.2103,0.2103,0.2103,0.2076,0.2076,0.2055,0.2059,0.2031,0.2025,0.2031,0.2007,0.2014,0.1988,0.1992,0.1945,0.1953,0.1948,0.195,0.1915,0.1918,0.1804,0.1789,0.1894,0.1893,0.1893,0,0.2078,0.2054,0.2052,0.204,0.2037,0.2016,0.2005,0.202,0.2007,0.1996,0.1976,0.1954,0.1938,0.1899,0.1899,0.1879,0.1886,0.1848,0.1883,0.1879,0.1884,0.1885,0.1882,0.184,0.1839,0.1838,0.1837,0,0.1987,0.1994,0.1978,0.1963,0.195,0.1938,0.1929,0.1917,0.1931,0.1915,0.1892,0.1879,0.1853,0.1831,0.1813,0.1808,0.1824,0.1826,0.1817,0.1812,0.181,0.1809,0.1928,0.1828,0.1829,0.183,0.183,0.1831,0.1919,0.1899,0.1895,0.1876,0.1871,0.1862,0.1842,0.1845,0.1827,0.1808,0.1817,0.179,0.1782,0.1759,0.1753,0.173,0.1745,0.1732,0.1728,0.1725,0.172,0.1814,0.1727,0.1727,0.1728,0.1728,0.1728,0,0.1829,0.1828,0.1811,0.1797,0.1782,0.1801,0.1791,0.1777,0.1753,0.1745,0.1729,0.1702,0.1681,0.168,0.166,0.1642,0.1649,0.1636,0.1637,0.1635,0.1709,0.1718,0.1631,0.1631,0.1631,0.1631,0.1631,0.1631,0.178,0.1746,0.1752,0.1715,0.1714,0.1689,0.1682,0.1673,0.1667,0.1636,0.1619,0.162,0.1614,0.1594,0.1575,0.1575,0.1566,0.155,0.1553,0.1621,0.163,0.1639,0.1648,0.1548,0.1548,0.1481,0.1481,0.148]}]]